Location: Bougoudala
(13.2282°N, 4.9477°W)
Time: 16:53:23
(UTC+00:00)

Cosmos 371 Rocket - Pass Details

Date: 29 January 2020
Orbit: 684 x 699 km, 74.0° (Epoch: 17 February)

Event Time Altitude Azimuth Distance (km) Brightness Sun altitude
Rises 19:13:02 0° 166° (SSE) 3,065 6.6 -13.4°
Reaches altitude 10° 19:15:47 10° 151° (SSE) 2,150 5.7 -14.0°
Maximum altitude 19:19:31 22° 100° (E) 1,485 4.5 -14.9°
Enters shadow 19:19:55 22° 93° (E) 1,495 4.4 -15.0°
